Probability
0 0 1 1 2 1 1 1 1 0 0 0 0 0 0 0 1 1 2 2 2 2 2 3 5 5 4 3 4 6 6 6 6 6 6 7 7 6 5 4 5 6 7
0 1 2 2 3 2 1 1 0 0 0 0 0 0 0 0 0 1 1 2 2 3 3 3 5 5 4 3 4 5 6 6 6 5 4 4 5 5 5 5 5 5 6
1 1 2 3 4 4 3 2 0 0 0 0 0 0 0 0 0 0 1 2 2 3 3 4 5 6 5 4 4 4 4 4 3 3 1 1 2 3 4 4 4 4 4
0 1 1 3 4 5 5 4 1 0 0 0 0 0 0 0 0 0 1 2 3 3 4 5 5 6 6 5 3 2 2 2 1 1 0 0 0 1 2 3 3 3 3
0 0 1 2 4 5 6 4 2 0 0 0 0 0 0 1 1 2 2 3 3 3 4 5 5 5 5 4 3 2 1 1 0 0 0 0 0 1 2 3 2 1 1
0 0 1 2 3 3 4 4 2 1 0 0 0 0 0 1 2 3 4 4 4 4 5 6 6 5 4 4 3 2 2 2 1 1 0 0 0 1 3 3 1 0 0
0 0 1 2 3 2 2 3 3 1 0 0 0 0 0 1 3 5 5 4 5 6 7 7 6 5 4 4 4 3 3 3 2 1 0 0 0 1 3 3 1 0 0
0 0 1 2 2 1 1 3 3 2 1 1 1 0 0 0 2 4 4 4 5 7 7 6 5 4 5 5 4 4 4 3 3 2 0 0 0 2 3 3 1 0 0
0 0 1 2 2 1 1 3 4 4 2 1 0 0 0 0 1 2 3 3 5 7 7 5 4 4 4 4 4 4 4 4 2 1 0 0 1 2 3 3 1 0 0
0 0 1 1 1 0 1 2 4 4 3 1 0 0 0 0 0 2 3 3 5 7 6 4 4 3 3 3 3 4 4 3 1 1 0 0 1 2 3 3 2 1 0
1 0 0 0 0 0 0 1 2 3 2 1 0 1 0 0 0 1 2 3 5 6 5 4 3 3 3 3 3 3 3 1 0 0 0 0 0 1 1 2 3 2 1
2 1 0 0 0 0 0 0 1 1 1 0 0 0 0 0 0 0 1 2 3 4 4 3 3 3 3 3 3 2 2 1 0 0 0 0 0 0 0 1 2 2 1
2 1 0 0 0 0 0 0 0 0 0 0 0 0 0 0 0 0 0 1 1 1 2 3 3 3 3 2 1 1 1 0 0 0 0 0 0 0 0 0 1 1 1
2 2 1 0 0 1 1 1 0 0 1 1 1 0 0 0 0 0 0 0 0 0 1 2 2 2 2 1 0 0 0 0 0 0 0 0 0 0 0 0 1 2 2
2 2 1 0 0 1 2 1 0 0 1 1 1 0 0 0 0 0 0 0 0 0 0 1 1 1 1 1 0 0 0 0 0 0 0 0 0 0 1 1 1 2 2
2 1 1 0 0 1 2 2 1 1 0 1 1 1 0 0 0 0 0 0 0 0 0 0 0 0 0 0 0 0 0 0 0 0 0 0 0 0 1 2 1 1 1
2 2 1 1 1 0 1 2 2 2 1 1 2 2 1 1 1 0 0 0 0 0 0 0 0 0 0 0 0 0 0 0 0 0 0 0 0 0 1 1 1 1 2
3 3 3 3 3 1 0 1 2 3 2 1 2 2 2 2 2 1 1 1 0 0 0 0 0 0 0 0 0 0 0 0 0 0 0 0 0 0 1 2 2 2 2
4 5 6 7 5 2 1 2 4 4 3 1 1 2 2 2 2 2 2 2 1 0 0 0 0 0 0 0 0 0 0 0 0 0 0 0 0 0 1 2 2 1 1
8 9 9 9 7 4 4 5 5 4 3 1 1 2 2 1 1 1 1 1 1 0 0 0 0 0 0 0 0 0 0 0 0 0 0 0 0 0 0 1 1 0 0
12 12 11 9 7 5 5 5 4 3 2 1 0 1 1 0 0 0 0 0 0 0 0 0 0 0 0 0 0 0 0 0 0 0 0 0 0 0 0 0 0 0 0
12 12 10 8 6 3 3 4 4 3 1 0 0 0 0 0 1 1 1 1 0 0 0 0 0 0 0 0 0 0 0 0 0 0 0 0 1 1 1 1 0 0 0
12 12 11 9 6 3 3 4 4 3 1 0 0 0 0 0 2 3 3 2 2 1 1 0 0 0 0 0 0 0 0 0 0 0 0 0 1 2 2 1 1 1 1
16 16 17 15 10 7 5 5 6 4 1 0 0 1 1 1 3 3 3 4 4 4 3 1 0 0 1 0 0 0 0 0 0 0 0 0 1 1 1 1 2 2 2
19 20 21 20 15 11 9 9 7 4 2 1 2 2 1 1 3 3 3 4 5 5 5 3 2 1 1 0 1 1 0 0 0 0 0 0 1 0 0 1 2 3 3
18 20 22 21 16 13 12 11 9 5 3 3 3 3 1 1 2 3 3 4 4 4 5 5 4 2 1 1 2 2 1 0 0 0 0 0 1 0 0 0 1 3 3
Wind_Speed
1 1 5 8 9 10 10 10 11 11 11 11 11 11 11 11 11 11 11 11 11 12 13 13 13 13 14 15 16 16 16 16 15 15 14 14 14 13 13 13 12 8 13
3 2 7 8 9 9 10 10 10 11 11 11 11 11 11 11 11 10 10 11 12 13 14 13 13 13 13 15 16 16 16 15 14 14 13 12 12 12 12 12 11 8 13
4 2 5 8 8 9 9 9 10 10 11 11 11 11 11 11 11 11 11 11 12 14 14 13 13 13 13 15 15 15 15 15 14 14 12 6 8 11 12 12 12 12 12
5 3 5 8 9 8 8 8 9 9 10 10 10 10 11 11 10 11 11 11 12 13 13 13 13 13 14 14 15 14 15 15 14 13 6 5 6 11 12 12 11 11 11
5 3 5 9 8 8 8 8 8 8 9 9 9 10 10 10 10 11 11 11 11 12 12 12 12 12 13 13 14 13 13 14 13 10 5 5 5 11 13 13 11 11 11
5 3 4 8 8 8 8 8 7 8 8 9 9 10 10 10 10 10 11 10 10 11 11 11 11 11 11 12 12 12 12 12 10 6 5 5 5 11 13 12 12 11 11
5 3 4 8 8 8 8 8 7 7 8 8 9 10 10 10 10 10 10 10 10 10 10 10 10 10 11 11 11 11 11 11 7 5 5 4 5 10 11 11 11 11 11
7 4 3 7 8 7 7 7 7 7 8 9 9 9 9 10 9 9 9 9 9 9 10 9 10 10 10 10 9 10 11 10 8 6 5 4 8 10 11 10 10 10 10
6 4 2 3 4 6 6 6 6 7 7 8 8 8 8 9 9 8 8 8 8 8 10 10 10 9 8 8 9 9 10 10 6 4 6 4 9 11 11 10 10 10 10
5 4 3 2 2 2 2 4 5 6 7 7 7 8 8 8 8 8 6 7 8 8 9 10 9 9 8 8 8 8 9 8 5 5 4 6 11 11 11 10 10 9 9
4 3 3 3 2 2 2 3 3 4 5 5 5 6 6 3 3 4 5 7 7 8 9 9 9 8 7 7 7 9 8 3 4 3 3 8 10 10 10 10 9 9 9
4 3 3 3 2 2 2 2 1 2 2 2 2 2 2 2 2 4 5 6 7 8 8 8 8 7 5 3 5 6 3 4 3 3 4 9 9 9 9 8 8 9 8
5 4 3 3 2 2 2 2 1 1 1 2 2 3 2 2 2 2 1 2 3 5 3 4 4 3 3 3 3 3 4 3 2 2 4 9 9 8 8 8 8 8 8
5 5 4 3 2 2 2 2 2 2 1 1 2 3 2 2 2 1 1 1 2 2 3 3 2 3 3 4 4 4 4 3 3 2 4 10 8 8 8 7 7 7 7
5 4 4 4 3 2 2 2 3 2 2 2 3 3 3 2 2 2 1 2 2 2 3 3 3 3 4 4 4 5 4 4 4 3 3 8 8 7 6 7 7 7 7
5 4 4 4 3 3 3 2 2 2 2 2 2 3 3 2 2 2 2 2 2 2 2 3 3 3 3 3 4 4 4 4 4 3 2 4 7 6 5 6 7 7 7
6 5 5 4 3 3 4 3 2 2 3 2 2 2 3 3 3 3 3 2 2 3 3 4 4 3 4 4 4 4 4 4 4 4 3 2 2 4 4 5 5 6 6
6 5 4 5 4 4 4 3 2 2 3 2 2 2 3 3 4 4 3 2 2 3 3 3 3 4 3 3 2 2 2 3 4 3 2 2 1 1 2 4 4 4 5
7 6 4 4 4 4 3 3 3 3 2 2 2 2 2 3 4 4 3 2 3 3 2 3 3 3 3 3 2 2 2 2 2 3 3 2 2 2 1 2 3 4 5
6 6 5 4 4 4 3 3 3 2 2 2 2 2 3 3 4 4 3 3 3 3 2 2 3 2 3 3 3 2 1 1 1 2 3 3 2 2 2 1 1 2 5
6 5 5 4 3 3 2 2 2 1 1 1 1 2 3 3 4 4 3 3 3 3 3 3 3 3 2 2 3 2 2 1 1 1 1 2 2 2 2 2 1 1 1
7 6 5 5 4 3 2 2 2 2 1 1 1 1 2 3 4 4 4 3 3 2 2 2 3 2 1 2 3 2 1 2 2 0 1 1 2 2 2 3 2 2 2
7 7 6 5 4 4 3 3 3 2 2 1 1 1 1 3 3 3 4 4 3 3 3 3 3 3 2 1 2 4 3 3 1 2 1 1 1 1 1 1 2 3 2
8 7 6 6 5 4 4 4 4 3 3 2 2 1 1 2 3 3 4 4 3 3 3 3 3 2 3 2 1 1 2 4 3 0 2 1 0 0 1 1 1 2 2
9 8 7 6 5 5 5 5 4 3 2 1 2 2 1 0 1 2 3 3 3 2 3 2 2 2 2 2 2 1 1 1 2 3 1 1 1 1 0 1 1 1 2
8 8 7 7 6 5 5 5 5 5 4 3 2 2 1 0 0 1 2 2 2 2 2 3 3 2 2 2 2 2 2 2 2 3 3 2 1 1 1 0 1 1 1
Wind_Direction
187 191 92 88 85 85 84 83 82 82 85 90 95 102 106 108 110 115 119 124 133 139 142 143 141 143 145 149 149 149 146 144 143 143 143 141 138 137 135 134 134 132 134
155 143 104 95 92 89 88 88 86 85 87 94 99 103 105 106 107 111 119 124 133 137 139 141 139 139 143 147 148 148 146 144 142 140 142 142 141 141 140 141 140 141 139
129 125 110 102 99 95 92 92 92 89 90 94 99 103 106 107 108 110 117 120 128 133 135 136 136 136 139 143 147 147 145 142 138 140 139 138 140 139 140 142 140 142 141
131 122 114 107 102 100 98 97 97 95 93 94 100 105 109 108 109 112 117 121 123 128 132 134 135 136 138 140 142 142 143 146 144 142 138 139 142 138 140 145 145 145 145
125 126 124 110 106 105 105 103 103 102 100 100 105 110 113 111 110 113 118 122 124 128 130 134 135 136 138 140 141 143 144 147 145 137 132 132 138 143 144 148 147 147 153
131 136 127 113 113 113 110 107 110 109 108 108 111 115 116 115 113 112 114 118 122 127 128 130 135 133 138 140 143 145 145 142 139 134 129 137 143 148 150 152 153 152 154
140 140 129 122 121 120 118 112 111 115 113 114 114 116 117 117 116 113 114 118 120 126 130 129 131 129 131 137 141 144 147 146 137 132 135 138 148 152 153 154 153 156 156
144 139 129 129 128 125 123 118 115 118 121 121 119 119 121 123 117 116 118 120 122 123 128 128 134 130 133 138 139 142 146 146 142 142 141 146 155 157 156 156 155 155 154
142 136 124 122 129 132 128 124 122 119 122 125 124 125 125 125 122 121 122 124 123 121 125 126 129 133 133 132 135 142 145 144 132 141 153 154 159 159 160 160 159 159 158
140 142 145 127 112 123 126 128 129 126 122 126 128 129 128 127 127 127 126 129 126 124 128 131 133 133 133 132 133 139 139 132 128 139 144 158 163 165 165 163 161 161 160
139 143 143 143 150 158 146 138 133 128 120 121 132 133 127 115 119 125 131 133 131 129 133 135 132 130 130 127 126 130 125 110 121 128 142 157 161 166 168 169 168 165 163
151 152 144 142 144 152 149 133 113 107 92 95 100 112 105 114 125 132 139 140 138 135 132 130 129 124 115 108 111 115 107 109 113 125 146 158 160 161 162 166 167 164 164
158 150 149 149 144 139 123 126 110 96 80 83 97 103 100 96 103 105 113 125 123 123 119 116 113 99 101 105 104 108 114 114 116 128 135 142 143 145 152 160 162 164 166
145 151 148 139 129 126 122 126 118 108 93 93 91 95 97 100 101 105 104 106 98 107 114 109 103 102 105 108 114 116 123 120 121 120 139 146 147 150 156 163 166 169 171
139 141 141 137 133 124 112 112 114 121 120 119 106 101 108 111 113 110 108 100 103 105 113 113 105 103 106 107 109 113 118 124 129 129 138 148 149 156 162 169 174 179 181
147 150 144 138 137 124 115 112 121 123 125 113 113 125 119 117 118 112 98 95 101 110 115 118 114 105 99 101 100 106 115 118 119 121 127 150 152 153 165 173 179 177 178
150 149 147 142 135 127 131 132 125 120 120 116 117 121 121 117 118 116 106 101 110 112 108 104 101 97 99 98 96 103 110 115 121 122 122 121 149 158 156 155 160 166 170
147 147 151 143 130 123 122 123 114 106 110 115 120 118 119 121 122 114 111 110 112 106 106 108 103 101 97 98 96 97 100 113 128 135 128 122 117 137 160 154 154 160 169
151 146 139 133 133 132 124 110 109 112 112 115 115 120 125 125 127 123 123 120 117 106 108 123 111 117 115 113 115 107 96 114 140 139 132 138 140 139 147 165 169 171 179
147 142 137 129 131 128 112 95 89 85 94 103 116 125 127 124 125 123 126 128 121 110 105 112 120 118 122 131 122 102 87 113 134 145 154 153 162 169 169 175 195 198 186
144 140 138 133 136 124 116 119 120 123 122 109 125 127 123 125 130 126 125 127 123 127 144 142 127 120 119 118 97 70 30 33 79 139 148 149 174 186 171 176 183 187 197
158 154 148 148 149 149 154 148 147 145 144 145 131 120 122 126 132 137 133 140 138 134 135 142 135 130 155 151 136 126 83 3 356 349 142 157 180 184 187 193 185 183 196
165 165 160 161 164 165 150 122 112 90 71 64 89 131 142 139 137 139 147 147 153 152 158 171 162 154 173 206 166 151 153 192 268 341 343 147 157 148 195 203 188 192 191
175 168 160 164 172 166 149 139 143 148 157 180 171 155 140 139 145 148 151 152 155 157 163 182 171 163 157 179 215 184 168 158 156 189 332 331 171 167 194 179 181 180 175
172 167 167 166 173 167 155 152 146 148 161 156 127 121 109 89 149 149 153 153 157 161 169 174 163 156 159 168 177 174 141 131 144 151 212 294 348 326 253 160 150 149 143
170 168 170 168 176 172 165 158 155 157 155 141 140 140 147 118 183 171 148 154 162 166 172 175 172 162 164 168 168 168 169 172 180 163 180 204 222 278 312 278 141 133 128